Tracking 19125 objects as of 19-Apr-2018
HD Live streaming from Space Station
objects crossing your sky now

IRIDIUM 124

Track IRIDIUM 124 now!
10-day predictions
IRIDIUM 124 is classified as:


NORAD ID: 42810
Int'l Code: 2017-039H
Perigee: 616.4 km
Apogee: 630.5 km
Inclination: 85.7 °
Period: 97.0 minutes
Semi major axis: 6994 km
RCS: Unknown
Launch date: June 25, 2017
Source: United States (US)
Launch site: AIR FORCE WESTERN TEST RANGE (AFWTR)
aabbcc
Your satellite tracking list
Your tracking list is empty




NASA's NSSDC Master Catalog

Two Line Element Set (TLE):
1 42810U 17039H   18109.51381790  .00000060  00000-0  38059-5 0  9994
2 42810  85.6767 128.0189 0010085 276.0052  84.0021 14.84123806 44146
Source of the keplerian elements: AFSPC